Wolke Sonne

Wetter Ammerndorf

Gehe zu: Roßtal

Tageswerte vom Dienstag, 01.03.2022

Optionen

Tag:
Erweitert:

Alle Werte vom Dienstag, 01.03.2022

Einen Moment bitte, die Daten werden aufbereitet...

UhrzeitTemperaturBoden 10cmBoden 20cmFeuchteLuftdruckNiederschlagEvapotranspirationWindWindböenWindrichtungSolarstrahlungUV-IndexSonne?Uhrzeit
Diagramm IconDiagramm IconDiagramm IconDiagramm IconDiagramm IconDiagramm IconDiagramm IconDiagramm IconDiagramm IconDiagramm IconDiagramm IconDiagramm IconDiagramm Icon
00:00-1,3 °C 3,3 °C 3,9 °C 67 % 1035,5 hPa 0,0 mm - 0,0 km/h 6,5 km/h S 0,0 W/qm 0,0 nein 00:00
00:05-1,4 °C 3,3 °C 3,9 °C 67 % 1035,6 hPa 0,0 mm 0,0 mm 0,0 km/h 6,5 km/h SO 0,0 W/qm 0,0 nein 00:05
00:10-1,3 °C 3,3 °C 3,9 °C 67 % 1035,5 hPa 0,0 mm 0,0 mm 0,0 km/h 4,7 km/h SSO 0,0 W/qm 0,0 nein 00:10
00:15-1,4 °C 3,3 °C 3,9 °C 67 % 1035,5 hPa 0,0 mm - 1,4 km/h 3,2 km/h ONO 0,0 W/qm 0,0 nein 00:15
00:20-1,4 °C 3,3 °C 3,9 °C 68 % 1035,6 hPa 0,0 mm - 0,0 km/h 4,7 km/h SSO 0,0 W/qm 0,0 nein 00:20
00:25-1,5 °C 3,3 °C 3,9 °C 67 % 1035,6 hPa 0,0 mm - 1,4 km/h 7,9 km/h SSW 0,0 W/qm 0,0 nein 00:25
00:30-1,6 °C 3,3 °C 3,9 °C 68 % 1035,5 hPa 0,0 mm - 1,4 km/h 7,9 km/h S 0,0 W/qm 0,0 nein 00:30
00:35-1,6 °C 3,3 °C 3,9 °C 68 % 1035,5 hPa 0,0 mm - 1,4 km/h 4,7 km/h SO 0,0 W/qm 0,0 nein 00:35
00:40-1,6 °C 3,3 °C 3,9 °C 68 % 1035,4 hPa 0,0 mm - 1,4 km/h 4,7 km/h S 0,0 W/qm 0,0 nein 00:40
00:45-1,7 °C 3,3 °C 3,9 °C 68 % 1035,4 hPa 0,0 mm - 1,4 km/h 6,5 km/h S 0,0 W/qm 0,0 nein 00:45
00:50-1,7 °C 3,3 °C 3,9 °C 68 % 1035,4 hPa 0,0 mm - 1,4 km/h 6,5 km/h S 0,0 W/qm 0,0 nein 00:50
00:55-1,7 °C 2,8 °C 3,9 °C 68 % 1035,4 hPa 0,0 mm - 1,4 km/h 6,5 km/h S 0,0 W/qm 0,0 nein 00:55
01:00-1,8 °C 2,8 °C 3,9 °C 68 % 1035,4 hPa 0,0 mm - 1,4 km/h 6,5 km/h SSO 0,0 W/qm 0,0 nein 01:00
01:05-1,9 °C 2,8 °C 3,9 °C 69 % 1035,3 hPa 0,0 mm 0,0 mm 0,0 km/h 6,5 km/h S 0,0 W/qm 0,0 nein 01:05
01:10-1,9 °C 2,8 °C 3,9 °C 68 % 1035,3 hPa 0,0 mm 0,0 mm 0,0 km/h 6,5 km/h S 0,0 W/qm 0,0 nein 01:10
01:15-1,9 °C 2,8 °C 3,9 °C 68 % 1035,3 hPa 0,0 mm - 0,0 km/h 6,5 km/h OSO 0,0 W/qm 0,0 nein 01:15
01:20-1,9 °C 2,8 °C 3,9 °C 68 % 1035,2 hPa 0,0 mm - 1,4 km/h 4,7 km/h SSW 0,0 W/qm 0,0 nein 01:20
01:25-1,9 °C 2,8 °C 3,9 °C 68 % 1035,2 hPa 0,0 mm - 1,4 km/h 4,7 km/h SSW 0,0 W/qm 0,0 nein 01:25
01:30-1,8 °C 2,8 °C 3,9 °C 68 % 1035,1 hPa 0,0 mm - 1,4 km/h 4,7 km/h SW 0,0 W/qm 0,0 nein 01:30
01:35-1,9 °C 2,8 °C 3,9 °C 68 % 1035,2 hPa 0,0 mm - 0,0 km/h 4,7 km/h SW 0,0 W/qm 0,0 nein 01:35
01:40-2,1 °C 2,8 °C 3,9 °C 68 % 1035,2 hPa 0,0 mm - 0,0 km/h 4,7 km/h S 0,0 W/qm 0,0 nein 01:40
01:45-2,1 °C 2,8 °C 3,9 °C 68 % 1035,2 hPa 0,0 mm - 0,0 km/h 4,7 km/h NO 0,0 W/qm 0,0 nein 01:45
01:50-2,2 °C 2,8 °C 3,9 °C 69 % 1035,2 hPa 0,0 mm - 0,0 km/h 3,2 km/h SO 0,0 W/qm 0,0 nein 01:50
01:55-2,3 °C 2,8 °C 3,9 °C 69 % 1035,2 hPa 0,0 mm - 0,0 km/h 3,2 km/h S 0,0 W/qm 0,0 nein 01:55
UhrzeitTemperaturBoden 10cmBoden 20cmFeuchteLuftdruckNiederschlagEvapotranspirationWindWindböenWindrichtungSolarstrahlungUV-IndexSonne?Uhrzeit
02:00-2,6 °C 2,8 °C 3,9 °C 71 % 1035,2 hPa 0,0 mm - 0,0 km/h 4,7 km/h S 0,0 W/qm 0,0 nein 02:00
02:05-2,9 °C 2,8 °C 3,9 °C 74 % 1035,2 hPa 0,0 mm 0,0 mm 0,0 km/h 4,7 km/h S 0,0 W/qm 0,0 nein 02:05
02:10-3,2 °C 2,8 °C 3,9 °C 75 % 1035,2 hPa 0,0 mm 0,0 mm 0,0 km/h 3,2 km/h S 0,0 W/qm 0,0 nein 02:10
02:15-3,5 °C 2,8 °C 3,9 °C 76 % 1035,3 hPa 0,0 mm - 0,0 km/h 3,2 km/h S 0,0 W/qm 0,0 nein 02:15
02:20-3,6 °C 2,8 °C 3,9 °C 76 % 1035,2 hPa 0,0 mm - 0,0 km/h 3,2 km/h OSO 0,0 W/qm 0,0 nein 02:20
02:25-3,7 °C 2,8 °C 3,9 °C 76 % 1035,2 hPa 0,0 mm - 0,0 km/h 3,2 km/h OSO 0,0 W/qm 0,0 nein 02:25
02:30-3,9 °C 2,8 °C 3,9 °C 77 % 1035,1 hPa 0,0 mm - 0,0 km/h 3,2 km/h OSO 0,0 W/qm 0,0 nein 02:30
02:35-3,9 °C 2,8 °C 3,9 °C 77 % 1035,1 hPa 0,0 mm - 0,0 km/h 3,2 km/h OSO 0,0 W/qm 0,0 nein 02:35
02:40-4,1 °C 2,8 °C 3,9 °C 78 % 1035,2 hPa 0,0 mm - 0,0 km/h 1,4 km/h S 0,0 W/qm 0,0 nein 02:40
02:45-4,1 °C 2,8 °C 3,9 °C 78 % 1035,2 hPa 0,0 mm - 0,0 km/h 1,4 km/h S 0,0 W/qm 0,0 nein 02:45
02:50-4,0 °C 2,8 °C 3,9 °C 78 % 1035,2 hPa 0,0 mm - 0,0 km/h 3,2 km/h S 0,0 W/qm 0,0 nein 02:50
02:55-4,2 °C 2,8 °C 3,9 °C 78 % 1035,2 hPa 0,0 mm - 0,0 km/h 3,2 km/h S 0,0 W/qm 0,0 nein 02:55
03:00-4,3 °C 2,8 °C 3,9 °C 79 % 1035,2 hPa 0,0 mm - 0,0 km/h 3,2 km/h WSW 0,0 W/qm 0,0 nein 03:00
03:05-4,2 °C 2,8 °C 3,9 °C 79 % 1035,2 hPa 0,0 mm 0,0 mm 0,0 km/h 3,2 km/h WSW 0,0 W/qm 0,0 nein 03:05
03:10-4,2 °C 2,8 °C 3,9 °C 79 % 1035,2 hPa 0,0 mm 0,0 mm 0,0 km/h 1,4 km/h WSW 0,0 W/qm 0,0 nein 03:10
03:15-4,2 °C 2,8 °C 3,9 °C 79 % 1035,1 hPa 0,0 mm - 0,0 km/h 1,4 km/h WSW 0,0 W/qm 0,0 nein 03:15
03:20-4,3 °C 2,8 °C 3,9 °C 79 % 1035,1 hPa 0,0 mm - 0,0 km/h 0,0 km/h WSW 0,0 W/qm 0,0 nein 03:20
03:25-4,3 °C 2,8 °C 3,9 °C 79 % 1035,1 hPa 0,0 mm - 0,0 km/h 0,0 km/h WSW 0,0 W/qm 0,0 nein 03:25
03:30-4,4 °C 2,8 °C 3,9 °C 79 % 1035,1 hPa 0,0 mm - 0,0 km/h 0,0 km/h WSW 0,0 W/qm 0,0 nein 03:30
03:35-4,3 °C 2,8 °C 3,9 °C 80 % 1035,1 hPa 0,0 mm - 0,0 km/h 0,0 km/h WSW 0,0 W/qm 0,0 nein 03:35
03:40-4,4 °C 2,8 °C 3,9 °C 80 % 1035,1 hPa 0,0 mm - 0,0 km/h 0,0 km/h WSW 0,0 W/qm 0,0 nein 03:40
03:45-4,6 °C 2,8 °C 3,9 °C 80 % 1035,0 hPa 0,0 mm - 0,0 km/h 0,0 km/h WSW 0,0 W/qm 0,0 nein 03:45
03:50-4,7 °C 2,8 °C 3,9 °C 81 % 1035,0 hPa 0,0 mm - 0,0 km/h 0,0 km/h WSW 0,0 W/qm 0,0 nein 03:50
03:55-4,7 °C 2,8 °C 3,9 °C 81 % 1035,0 hPa 0,0 mm - 0,0 km/h 0,0 km/h WSW 0,0 W/qm 0,0 nein 03:55
UhrzeitTemperaturBoden 10cmBoden 20cmFeuchteLuftdruckNiederschlagEvapotranspirationWindWindböenWindrichtungSolarstrahlungUV-IndexSonne?Uhrzeit
04:00-4,9 °C 2,8 °C 3,9 °C 80 % 1035,0 hPa 0,0 mm - 0,0 km/h 0,0 km/h WSW 0,0 W/qm 0,0 nein 04:00
04:05-5,1 °C 2,8 °C 3,9 °C 80 % 1035,0 hPa 0,0 mm 0,0 mm 0,0 km/h 0,0 km/h WSW 0,0 W/qm 0,0 nein 04:05
04:10-5,2 °C 2,8 °C 3,9 °C 81 % 1035,0 hPa 0,0 mm 0,0 mm 0,0 km/h 0,0 km/h WSW 0,0 W/qm 0,0 nein 04:10
04:15-5,2 °C 2,8 °C 3,9 °C 82 % 1035,1 hPa 0,0 mm - 0,0 km/h 0,0 km/h WSW 0,0 W/qm 0,0 nein 04:15
04:20-5,4 °C 2,8 °C 3,9 °C 82 % 1035,1 hPa 0,0 mm - 0,0 km/h 0,0 km/h WSW 0,0 W/qm 0,0 nein 04:20
04:25-5,4 °C 2,8 °C 3,9 °C 83 % 1035,0 hPa 0,0 mm - 0,0 km/h 0,0 km/h WSW 0,0 W/qm 0,0 nein 04:25
04:30-5,6 °C 2,8 °C 3,9 °C 83 % 1035,2 hPa 0,0 mm - 0,0 km/h 0,0 km/h WSW 0,0 W/qm 0,0 nein 04:30
04:35-5,7 °C 2,8 °C 3,9 °C 83 % 1035,2 hPa 0,0 mm - 0,0 km/h 0,0 km/h WSW 0,0 W/qm 0,0 nein 04:35
04:40-5,6 °C 2,8 °C 3,9 °C 84 % 1035,2 hPa 0,0 mm - 0,0 km/h 0,0 km/h WSW 0,0 W/qm 0,0 nein 04:40
04:45-5,6 °C 2,8 °C 3,9 °C 84 % 1035,2 hPa 0,0 mm - 0,0 km/h 0,0 km/h WSW 0,0 W/qm 0,0 nein 04:45
04:50-5,7 °C 2,8 °C 3,9 °C 83 % 1035,0 hPa 0,0 mm - 0,0 km/h 0,0 km/h WSW 0,0 W/qm 0,0 nein 04:50
04:55-5,6 °C 2,8 °C 3,9 °C 84 % 1035,1 hPa 0,0 mm - 0,0 km/h 0,0 km/h WSW 0,0 W/qm 0,0 nein 04:55
05:00-5,4 °C 2,8 °C 3,9 °C 84 % 1035,0 hPa 0,0 mm - 0,0 km/h 0,0 km/h WSW 0,0 W/qm 0,0 nein 05:00
05:05-5,5 °C 2,8 °C 3,9 °C 84 % 1035,1 hPa 0,0 mm 0,0 mm 0,0 km/h 0,0 km/h WSW 0,0 W/qm 0,0 nein 05:05
05:10-5,7 °C 2,8 °C 3,9 °C 84 % 1035,1 hPa 0,0 mm 0,0 mm 0,0 km/h 0,0 km/h WSW 0,0 W/qm 0,0 nein 05:10
05:15-5,8 °C 2,8 °C 3,9 °C 83 % 1035,2 hPa 0,0 mm - 0,0 km/h 0,0 km/h WSW 0,0 W/qm 0,0 nein 05:15
05:20-6,0 °C 2,8 °C 3,9 °C 83 % 1035,2 hPa 0,0 mm - 0,0 km/h 0,0 km/h WSW 0,0 W/qm 0,0 nein 05:20
05:25-6,1 °C 2,8 °C 3,9 °C 84 % 1035,3 hPa 0,0 mm - 0,0 km/h 0,0 km/h WSW 0,0 W/qm 0,0 nein 05:25
05:30-6,1 °C 2,8 °C 3,9 °C 84 % 1035,4 hPa 0,0 mm - 0,0 km/h 0,0 km/h WSW 0,0 W/qm 0,0 nein 05:30
05:35-6,1 °C 2,2 °C 3,3 °C 84 % 1035,4 hPa 0,0 mm - 0,0 km/h 0,0 km/h WSW 0,0 W/qm 0,0 nein 05:35
05:40-6,2 °C 2,2 °C 3,3 °C 85 % 1035,4 hPa 0,0 mm - 0,0 km/h 0,0 km/h WSW 0,0 W/qm 0,0 nein 05:40
05:45-6,2 °C 2,2 °C 3,3 °C 85 % 1035,3 hPa 0,0 mm - 0,0 km/h 0,0 km/h WSW 0,0 W/qm 0,0 nein 05:45
05:50-6,1 °C 2,2 °C 3,3 °C 86 % 1035,3 hPa 0,0 mm - 0,0 km/h 0,0 km/h WSW 0,0 W/qm 0,0 nein 05:50
05:55-5,9 °C 2,2 °C 3,3 °C 86 % 1035,2 hPa 0,0 mm - 0,0 km/h 0,0 km/h WSW 0,0 W/qm 0,0 nein 05:55
UhrzeitTemperaturBoden 10cmBoden 20cmFeuchteLuftdruckNiederschlagEvapotranspirationWindWindböenWindrichtungSolarstrahlungUV-IndexSonne?Uhrzeit
06:00-5,9 °C 2,2 °C 3,3 °C 85 % 1035,2 hPa 0,0 mm - 0,0 km/h 0,0 km/h WSW 0,0 W/qm 0,0 nein 06:00
06:05-6,3 °C 2,2 °C 3,3 °C 85 % 1035,3 hPa 0,0 mm 0,0 mm 0,0 km/h 0,0 km/h WSW 0,0 W/qm 0,0 nein 06:05
06:10-6,4 °C 2,2 °C 3,3 °C 85 % 1035,3 hPa 0,0 mm 0,0 mm 0,0 km/h 0,0 km/h WSW 0,0 W/qm 0,0 nein 06:10
06:15-6,5 °C 2,2 °C 3,3 °C 85 % 1035,2 hPa 0,0 mm - 0,0 km/h 0,0 km/h WSW 0,0 W/qm 0,0 nein 06:15
06:20-6,6 °C 2,2 °C 3,3 °C 85 % 1035,3 hPa 0,0 mm - 0,0 km/h 0,0 km/h WSW 0,0 W/qm 0,0 nein 06:20
06:25-6,7 °C 2,2 °C 3,3 °C 85 % 1035,4 hPa 0,0 mm - 0,0 km/h 0,0 km/h WSW 0,0 W/qm 0,0 nein 06:25
06:30-6,8 °C 2,2 °C 3,3 °C 86 % 1035,4 hPa 0,0 mm - 0,0 km/h 0,0 km/h WSW 0,0 W/qm 0,0 nein 06:30
06:35-6,8 °C 2,2 °C 3,3 °C 86 % 1035,4 hPa 0,0 mm - 0,0 km/h 0,0 km/h WSW 0,0 W/qm 0,0 nein 06:35
06:40-6,8 °C 2,2 °C 3,3 °C 86 % 1035,6 hPa 0,0 mm - 0,0 km/h 0,0 km/h WSW 0,0 W/qm 0,0 nein 06:40
06:45-6,9 °C 2,2 °C 3,3 °C 86 % 1035,6 hPa 0,0 mm - 0,0 km/h 0,0 km/h WSW 0,0 W/qm 0,0 nein 06:45
06:50-6,9 °C 2,2 °C 3,3 °C 86 % 1035,6 hPa 0,0 mm - 0,0 km/h 0,0 km/h WSW 0,0 W/qm 0,0 nein 06:50
06:55-6,9 °C 2,2 °C 3,3 °C 86 % 1035,6 hPa 0,0 mm - 0,0 km/h 0,0 km/h WSW 5,0 W/qm 0,0 nein 06:55
07:00-7,0 °C 2,2 °C 3,3 °C 86 % 1035,6 hPa 0,0 mm - 0,0 km/h 0,0 km/h WSW 5,0 W/qm 0,0 nein 07:00
07:05-6,9 °C 2,2 °C 3,3 °C 87 % 1035,6 hPa 0,0 mm 0,0 mm 0,0 km/h 0,0 km/h WSW 9,0 W/qm 0,0 nein 07:05
07:10-7,1 °C 2,2 °C 3,3 °C 86 % 1035,6 hPa 0,0 mm 0,0 mm 0,0 km/h 0,0 km/h WSW 11,0 W/qm 0,0 nein 07:10
07:15-7,0 °C 2,2 °C 3,3 °C 87 % 1035,6 hPa 0,0 mm - 0,0 km/h 0,0 km/h WSW 12,0 W/qm 0,0 nein 07:15
07:20-7,1 °C 2,2 °C 3,3 °C 87 % 1035,7 hPa 0,0 mm - 0,0 km/h 0,0 km/h WSW 16,0 W/qm 0,0 nein 07:20
07:25-7,1 °C 2,2 °C 3,3 °C 87 % 1035,7 hPa 0,0 mm - 0,0 km/h 0,0 km/h WSW 18,0 W/qm 0,0 nein 07:25
07:30-7,1 °C 2,2 °C 3,3 °C 87 % 1035,6 hPa 0,0 mm - 0,0 km/h 0,0 km/h WSW 19,0 W/qm 0,0 nein 07:30
07:35-7,1 °C 2,2 °C 3,3 °C 87 % 1035,7 hPa 0,0 mm - 0,0 km/h 0,0 km/h WSW 21,0 W/qm 0,0 nein 07:35
07:40-6,9 °C 2,2 °C 3,3 °C 87 % 1035,8 hPa 0,0 mm - 0,0 km/h 0,0 km/h WSW 23,0 W/qm 0,0 nein 07:40
07:45-6,8 °C 2,2 °C 3,3 °C 87 % 1035,7 hPa 0,0 mm - 0,0 km/h 0,0 km/h WSW 25,0 W/qm 0,0 nein 07:45
07:50-6,7 °C 2,2 °C 3,3 °C 88 % 1035,7 hPa 0,0 mm - 0,0 km/h 0,0 km/h WSW 26,0 W/qm 0,0 nein 07:50
07:55-6,6 °C 2,2 °C 3,3 °C 88 % 1035,7 hPa 0,0 mm - 0,0 km/h 0,0 km/h WSW 28,0 W/qm 0,0 nein 07:55
UhrzeitTemperaturBoden 10cmBoden 20cmFeuchteLuftdruckNiederschlagEvapotranspirationWindWindböenWindrichtungSolarstrahlungUV-IndexSonne?Uhrzeit
08:00-6,5 °C 2,2 °C 3,3 °C 88 % 1035,7 hPa 0,0 mm - 0,0 km/h 0,0 km/h WSW 32,0 W/qm 0,0 nein 08:00
08:05-6,3 °C 2,2 °C 3,3 °C 88 % 1035,7 hPa 0,0 mm 0,0 mm 0,0 km/h 0,0 km/h WSW 33,0 W/qm 0,0 nein 08:05
08:10-6,2 °C 2,2 °C 3,3 °C 88 % 1035,7 hPa 0,0 mm 0,0 mm 0,0 km/h 0,0 km/h WSW 40,0 W/qm 0,0 nein 08:10
08:15-6,1 °C 2,2 °C 3,3 °C 88 % 1035,7 hPa 0,0 mm - 0,0 km/h 0,0 km/h WSW 44,0 W/qm 0,0 nein 08:15
08:20-5,9 °C 2,2 °C 3,3 °C 88 % 1035,6 hPa 0,0 mm - 0,0 km/h 0,0 km/h WSW 46,0 W/qm 0,0 nein 08:20
08:25-5,5 °C 2,2 °C 3,3 °C 88 % 1035,6 hPa 0,0 mm - 0,0 km/h 0,0 km/h WSW 47,0 W/qm 0,0 nein 08:25
08:30-5,3 °C 2,2 °C 3,3 °C 87 % 1035,4 hPa 0,0 mm - 0,0 km/h 0,0 km/h WSW 49,0 W/qm 0,0 nein 08:30
08:35-4,7 °C 2,2 °C 3,3 °C 87 % 1035,4 hPa 0,0 mm - 0,0 km/h 0,0 km/h WSW 49,0 W/qm 0,0 nein 08:35
08:40-4,1 °C 2,2 °C 3,3 °C 86 % 1035,5 hPa 0,0 mm - 0,0 km/h 0,0 km/h WSW 51,0 W/qm 0,0 nein 08:40
08:45-3,7 °C 2,2 °C 3,3 °C 82 % 1035,3 hPa 0,0 mm - 0,0 km/h 0,0 km/h WSW 237,0 W/qm 0,0 ja 08:45
08:50-3,3 °C 2,2 °C 3,3 °C 81 % 1035,3 hPa 0,0 mm - 0,0 km/h 1,4 km/h SSW 250,0 W/qm 0,0 ja 08:50
08:55-2,7 °C 2,2 °C 3,3 °C 77 % 1035,2 hPa 0,0 mm - 0,0 km/h 6,5 km/h SSW 272,0 W/qm 0,0 ja 08:55
09:00-2,2 °C 2,2 °C 3,3 °C 74 % 1035,1 hPa 0,0 mm - 1,4 km/h 6,5 km/h SSO 269,0 W/qm 0,5 ja 09:00
09:05-2,0 °C 2,2 °C 3,3 °C 72 % 1035,1 hPa 0,0 mm 0,0 mm 1,4 km/h 7,9 km/h OSO 276,0 W/qm 0,5 ja 09:05
09:10-1,8 °C 2,2 °C 3,3 °C 71 % 1035,0 hPa 0,0 mm 0,0 mm 1,4 km/h 7,9 km/h SSO 292,0 W/qm 0,6 ja 09:10
09:15-1,6 °C 2,2 °C 3,3 °C 71 % 1035,0 hPa 0,0 mm - 1,4 km/h 7,9 km/h ONO 309,0 W/qm 0,6 ja 09:15
09:20-1,4 °C 2,2 °C 3,3 °C 71 % 1034,8 hPa 0,0 mm - 3,2 km/h 7,9 km/h NO 323,0 W/qm 0,6 ja 09:20
09:25-1,3 °C 2,2 °C 3,3 °C 69 % 1034,8 hPa 0,0 mm - 3,2 km/h 7,9 km/h OSO 334,0 W/qm 0,7 ja 09:25
09:30-1,2 °C 2,2 °C 3,3 °C 70 % 1034,8 hPa 0,0 mm - 3,2 km/h 9,7 km/h NNO 346,0 W/qm 0,7 ja 09:30
09:35-1,2 °C 2,2 °C 3,3 °C 68 % 1034,9 hPa 0,0 mm - 3,2 km/h 9,7 km/h OSO 359,0 W/qm 0,8 ja 09:35
09:40-0,9 °C 2,2 °C 3,3 °C 68 % 1034,9 hPa 0,0 mm - 3,2 km/h 9,7 km/h O 371,0 W/qm 0,8 ja 09:40
09:45-0,6 °C 2,2 °C 3,3 °C 68 % 1034,7 hPa 0,0 mm - 1,4 km/h 9,7 km/h OSO 383,0 W/qm 0,8 ja 09:45
09:50-0,4 °C 2,2 °C 3,3 °C 66 % 1034,6 hPa 0,0 mm - 3,2 km/h 9,7 km/h SO 394,0 W/qm 0,9 ja 09:50
09:55-0,2 °C 2,2 °C 3,3 °C 65 % 1034,5 hPa 0,0 mm - 3,2 km/h 7,9 km/h S 406,0 W/qm 0,9 ja 09:55
UhrzeitTemperaturBoden 10cmBoden 20cmFeuchteLuftdruckNiederschlagEvapotranspirationWindWindböenWindrichtungSolarstrahlungUV-IndexSonne?Uhrzeit
10:00-0,1 °C 2,2 °C 3,3 °C 64 % 1034,4 hPa 0,0 mm - 3,2 km/h 9,7 km/h O 413,0 W/qm 0,9 ja 10:00
10:05-0,1 °C 2,2 °C 3,3 °C 65 % 1034,4 hPa 0,0 mm 0,2 mm 4,7 km/h 11,2 km/h ONO 424,0 W/qm 1,0 ja 10:05
10:100,3 °C 2,2 °C 3,3 °C 63 % 1034,3 hPa 0,0 mm 0,2 mm 4,7 km/h 11,2 km/h S 436,0 W/qm 1,0 ja 10:10
10:150,4 °C 2,2 °C 3,3 °C 63 % 1034,3 hPa 0,0 mm - 4,7 km/h 13,0 km/h ONO 445,0 W/qm 1,1 ja 10:15
10:200,3 °C 2,2 °C 3,3 °C 63 % 1034,4 hPa 0,0 mm - 6,5 km/h 13,0 km/h NNO 454,0 W/qm 1,1 ja 10:20
10:250,6 °C 2,2 °C 3,3 °C 63 % 1034,2 hPa 0,0 mm - 6,5 km/h 13,0 km/h ONO 464,0 W/qm 1,1 ja 10:25
10:300,6 °C 2,2 °C 3,3 °C 63 % 1034,2 hPa 0,0 mm - 4,7 km/h 14,4 km/h O 471,0 W/qm 1,2 ja 10:30
10:350,9 °C 2,2 °C 3,3 °C 64 % 1034,1 hPa 0,0 mm - 3,2 km/h 14,4 km/h N 478,0 W/qm 1,2 ja 10:35
10:401,3 °C 2,2 °C 3,3 °C 60 % 1034,0 hPa 0,0 mm - 4,7 km/h 11,2 km/h S 489,0 W/qm 1,2 ja 10:40
10:451,6 °C 2,2 °C 3,3 °C 58 % 1034,0 hPa 0,0 mm - 6,5 km/h 11,2 km/h SO 497,0 W/qm 1,3 ja 10:45
10:501,8 °C 2,2 °C 3,3 °C 61 % 1033,8 hPa 0,0 mm - 4,7 km/h 14,4 km/h WNW 504,0 W/qm 1,3 ja 10:50
10:551,6 °C 2,2 °C 3,3 °C 59 % 1033,9 hPa 0,0 mm - 3,2 km/h 14,4 km/h O 512,0 W/qm 1,3 ja 10:55
11:001,7 °C 2,2 °C 3,3 °C 60 % 1033,8 hPa 0,0 mm - 3,2 km/h 11,2 km/h NO 519,0 W/qm 1,3 ja 11:00
11:051,7 °C 2,2 °C 3,3 °C 60 % 1033,7 hPa 0,0 mm 0,3 mm 3,2 km/h 11,2 km/h SO 522,0 W/qm 1,4 ja 11:05
11:101,9 °C 2,2 °C 3,3 °C 58 % 1033,7 hPa 0,0 mm 0,3 mm 3,2 km/h 11,2 km/h NO 531,0 W/qm 1,4 ja 11:10
11:152,3 °C 2,2 °C 3,3 °C 58 % 1033,5 hPa 0,0 mm - 4,7 km/h 9,7 km/h SSO 536,0 W/qm 1,4 ja 11:15
11:202,2 °C 2,2 °C 3,3 °C 57 % 1033,6 hPa 0,0 mm - 4,7 km/h 7,9 km/h ONO 540,0 W/qm 1,4 ja 11:20
11:252,3 °C 2,2 °C 3,3 °C 57 % 1033,5 hPa 0,0 mm - 3,2 km/h 9,7 km/h NNO 548,0 W/qm 1,5 ja 11:25
11:302,9 °C 2,2 °C 3,3 °C 58 % 1033,2 hPa 0,0 mm - 1,4 km/h 11,2 km/h O 554,0 W/qm 1,5 ja 11:30
11:353,2 °C 2,2 °C 3,3 °C 56 % 1033,1 hPa 0,0 mm - 3,2 km/h 11,2 km/h S 559,0 W/qm 1,5 ja 11:35
11:403,4 °C 2,2 °C 3,3 °C 53 % 1033,0 hPa 0,0 mm - 3,2 km/h 11,2 km/h SSO 559,0 W/qm 1,6 ja 11:40
11:453,8 °C 2,2 °C 3,3 °C 50 % 1032,8 hPa 0,0 mm - 3,2 km/h 9,7 km/h S 568,0 W/qm 1,6 ja 11:45
11:503,8 °C 2,2 °C 3,3 °C 50 % 1032,7 hPa 0,0 mm - 4,7 km/h 9,7 km/h OSO 570,0 W/qm 1,6 ja 11:50
11:554,4 °C 2,2 °C 3,3 °C 49 % 1032,6 hPa 0,0 mm - 4,7 km/h 13,0 km/h S 573,0 W/qm 1,6 ja 11:55
UhrzeitTemperaturBoden 10cmBoden 20cmFeuchteLuftdruckNiederschlagEvapotranspirationWindWindböenWindrichtungSolarstrahlungUV-IndexSonne?Uhrzeit
12:004,3 °C 2,2 °C 3,3 °C 48 % 1032,5 hPa 0,0 mm - 4,7 km/h 13,0 km/h S 577,0 W/qm 1,6 ja 12:00
12:054,8 °C 2,2 °C 3,3 °C 48 % 1032,3 hPa 0,0 mm 0,6 mm 4,7 km/h 13,0 km/h SO 578,0 W/qm 1,6 ja 12:05
12:104,3 °C 2,2 °C 3,3 °C 49 % 1032,3 hPa 0,0 mm 0,6 mm 6,5 km/h 16,2 km/h O 580,0 W/qm 1,6 ja 12:10
12:154,3 °C 2,2 °C 3,3 °C 49 % 1032,2 hPa 0,0 mm - 6,5 km/h 16,2 km/h OSO 582,0 W/qm 1,6 ja 12:15
12:204,4 °C 2,2 °C 3,3 °C 50 % 1032,2 hPa 0,0 mm - 6,5 km/h 14,4 km/h ONO 578,0 W/qm 1,6 ja 12:20
12:254,4 °C 2,2 °C 3,3 °C 49 % 1032,1 hPa 0,0 mm - 6,5 km/h 16,2 km/h S 582,0 W/qm 1,6 ja 12:25
12:304,9 °C 2,2 °C 3,3 °C 51 % 1031,9 hPa 0,0 mm - 3,2 km/h 16,2 km/h SO 587,0 W/qm 1,6 ja 12:30
12:355,2 °C 2,2 °C 3,3 °C 47 % 1031,7 hPa 0,0 mm - 4,7 km/h 16,2 km/h O 585,0 W/qm 1,6 ja 12:35
12:405,1 °C 2,2 °C 3,3 °C 44 % 1031,7 hPa 0,0 mm - 6,5 km/h 11,2 km/h S 584,0 W/qm 1,6 ja 12:40
12:455,2 °C 2,2 °C 3,3 °C 45 % 1031,6 hPa 0,0 mm - 6,5 km/h 13,0 km/h S 585,0 W/qm 1,6 ja 12:45
12:505,2 °C 2,2 °C 3,3 °C 45 % 1031,6 hPa 0,0 mm - 6,5 km/h 16,2 km/h SSO 582,0 W/qm 1,6 ja 12:50
12:555,3 °C 2,2 °C 3,3 °C 43 % 1031,7 hPa 0,0 mm - 6,5 km/h 16,2 km/h SSO 582,0 W/qm 1,6 ja 12:55
13:005,4 °C 2,2 °C 3,3 °C 43 % 1031,5 hPa 0,0 mm - 6,5 km/h 17,6 km/h SSO 580,0 W/qm 1,6 ja 13:00
13:055,4 °C 2,2 °C 3,3 °C 42 % 1031,4 hPa 0,0 mm 0,8 mm 4,7 km/h 17,6 km/h SO 580,0 W/qm 1,6 ja 13:05
13:105,7 °C 2,8 °C 3,3 °C 42 % 1031,3 hPa 0,0 mm 0,8 mm 4,7 km/h 17,6 km/h SSO 577,0 W/qm 1,6 ja 13:10
13:155,7 °C 2,8 °C 3,3 °C 42 % 1031,4 hPa 0,0 mm - 4,7 km/h 16,2 km/h SSO 573,0 W/qm 1,6 ja 13:15
13:205,7 °C 2,8 °C 3,3 °C 41 % 1031,3 hPa 0,0 mm - 4,7 km/h 16,2 km/h S 568,0 W/qm 1,6 ja 13:20
13:256,3 °C 2,8 °C 3,3 °C 43 % 1031,1 hPa 0,0 mm - 4,7 km/h 16,2 km/h SSO 568,0 W/qm 1,6 ja 13:25
13:306,4 °C 2,8 °C 3,3 °C 41 % 1031,1 hPa 0,0 mm - 3,2 km/h 16,2 km/h SSO 564,0 W/qm 1,5 ja 13:30
13:356,3 °C 2,8 °C 3,3 °C 41 % 1031,1 hPa 0,0 mm - 4,7 km/h 13,0 km/h SSO 559,0 W/qm 1,5 ja 13:35
13:406,1 °C 2,8 °C 3,3 °C 41 % 1031,1 hPa 0,0 mm - 4,7 km/h 13,0 km/h SO 554,0 W/qm 1,5 ja 13:40
13:456,3 °C 2,8 °C 3,3 °C 42 % 1031,0 hPa 0,0 mm - 3,2 km/h 11,2 km/h SSO 552,0 W/qm 1,5 ja 13:45
13:506,4 °C 2,8 °C 3,3 °C 40 % 1031,0 hPa 0,0 mm - 4,7 km/h 11,2 km/h SSO 547,0 W/qm 1,5 ja 13:50
13:556,7 °C 2,8 °C 3,3 °C 40 % 1030,9 hPa 0,0 mm - 3,2 km/h 14,4 km/h O 540,0 W/qm 1,4 ja 13:55
UhrzeitTemperaturBoden 10cmBoden 20cmFeuchteLuftdruckNiederschlagEvapotranspirationWindWindböenWindrichtungSolarstrahlungUV-IndexSonne?Uhrzeit
14:006,4 °C 2,8 °C 3,3 °C 42 % 1030,9 hPa 0,0 mm - 4,7 km/h 14,4 km/h ONO 531,0 W/qm 1,4 ja 14:00
14:056,3 °C 2,8 °C 3,3 °C 40 % 1030,9 hPa 0,0 mm 1,1 mm 4,7 km/h 13,0 km/h SSO 529,0 W/qm 1,4 ja 14:05
14:106,6 °C 2,8 °C 3,3 °C 38 % 1030,7 hPa 0,0 mm 1,1 mm 4,7 km/h 13,0 km/h SSO 526,0 W/qm 1,3 ja 14:10
14:156,4 °C 2,8 °C 3,3 °C 41 % 1030,7 hPa 0,0 mm - 4,7 km/h 14,4 km/h ONO 529,0 W/qm 1,3 ja 14:15
14:206,3 °C 3,3 °C 3,3 °C 42 % 1030,8 hPa 0,0 mm - 4,7 km/h 14,4 km/h ONO 454,0 W/qm 1,2 ja 14:20
14:256,3 °C 3,3 °C 3,3 °C 41 % 1030,7 hPa 0,0 mm - 6,5 km/h 11,2 km/h N 522,0 W/qm 1,2 ja 14:25
14:306,4 °C 3,3 °C 3,3 °C 41 % 1030,6 hPa 0,0 mm - 4,7 km/h 14,4 km/h S 487,0 W/qm 1,2 ja 14:30
14:356,8 °C 3,3 °C 3,3 °C 38 % 1030,4 hPa 0,0 mm - 4,7 km/h 14,4 km/h SSW 466,0 W/qm 1,1 ja 14:35
14:406,9 °C 3,3 °C 3,3 °C 38 % 1030,4 hPa 0,0 mm - 6,5 km/h 13,0 km/h ONO 476,0 W/qm 1,1 ja 14:40
14:456,8 °C 3,3 °C 3,3 °C 39 % 1030,2 hPa 0,0 mm - 4,7 km/h 14,4 km/h SSO 425,0 W/qm 1,1 ja 14:45
14:506,8 °C 3,3 °C 3,3 °C 36 % 1030,2 hPa 0,0 mm - 4,7 km/h 14,4 km/h SSO 476,0 W/qm 1,0 ja 14:50
14:557,1 °C 3,3 °C 3,3 °C 36 % 1030,3 hPa 0,0 mm - 6,5 km/h 14,4 km/h SSO 313,0 W/qm 0,9 ja 14:55
15:006,9 °C 3,3 °C 3,3 °C 36 % 1030,2 hPa 0,0 mm - 6,5 km/h 16,2 km/h SSO 441,0 W/qm 1,0 ja 15:00
15:057,2 °C 3,3 °C 3,3 °C 35 % 1030,0 hPa 0,0 mm 1,3 mm 4,7 km/h 16,2 km/h SSW 475,0 W/qm 1,0 ja 15:05
15:107,3 °C 3,3 °C 3,3 °C 35 % 1029,9 hPa 0,0 mm 1,3 mm 4,7 km/h 16,2 km/h SO 410,0 W/qm 0,9 ja 15:10
15:157,3 °C 3,3 °C 3,3 °C 35 % 1029,8 hPa 0,0 mm - 4,7 km/h 14,4 km/h SSO 301,0 W/qm 0,8 ja 15:15
15:207,2 °C 3,3 °C 3,3 °C 36 % 1029,7 hPa 0,0 mm - 4,7 km/h 14,4 km/h S 367,0 W/qm 0,8 ja 15:20
15:257,3 °C 3,3 °C 3,3 °C 37 % 1029,7 hPa 0,0 mm - 6,5 km/h 14,4 km/h S 381,0 W/qm 0,8 ja 15:25
15:307,1 °C 3,3 °C 3,3 °C 37 % 1029,8 hPa 0,0 mm - 4,7 km/h 16,2 km/h S 339,0 W/qm 0,7 ja 15:30
15:357,1 °C 3,3 °C 3,3 °C 34 % 1029,7 hPa 0,0 mm - 6,5 km/h 16,2 km/h SSO 295,0 W/qm 0,7 ja 15:35
15:407,0 °C 3,3 °C 3,3 °C 36 % 1029,7 hPa 0,0 mm - 6,5 km/h 16,2 km/h ONO 287,0 W/qm 0,6 ja 15:40
15:456,7 °C 3,3 °C 3,3 °C 37 % 1029,8 hPa 0,0 mm - 3,2 km/h 16,2 km/h S 271,0 W/qm 0,6 ja 15:45
15:506,9 °C 3,3 °C 3,3 °C 35 % 1029,7 hPa 0,0 mm - 4,7 km/h 16,2 km/h SSO 311,0 W/qm 0,6 ja 15:50
15:557,1 °C 3,3 °C 3,3 °C 35 % 1029,6 hPa 0,0 mm - 4,7 km/h 11,2 km/h SSO 174,0 W/qm 0,5 nein 15:55
UhrzeitTemperaturBoden 10cmBoden 20cmFeuchteLuftdruckNiederschlagEvapotranspirationWindWindböenWindrichtungSolarstrahlungUV-IndexSonne?Uhrzeit
16:006,9 °C 3,3 °C 3,3 °C 34 % 1029,7 hPa 0,0 mm - 4,7 km/h 14,4 km/h SSO 149,0 W/qm 0,5 nein 16:00
16:056,8 °C 3,3 °C 3,3 °C 35 % 1029,7 hPa 0,0 mm 1,5 mm 4,7 km/h 14,4 km/h SSO 234,0 W/qm 0,5 ja 16:05
16:106,8 °C 3,3 °C 3,3 °C 36 % 1029,7 hPa 0,0 mm 1,5 mm 3,2 km/h 13,0 km/h SSO 258,0 W/qm 0,0 ja 16:10
16:156,9 °C 3,3 °C 3,3 °C 35 % 1029,7 hPa 0,0 mm - 4,7 km/h 11,2 km/h S 192,0 W/qm 0,0 nein 16:15
16:206,8 °C 3,3 °C 3,3 °C 35 % 1029,7 hPa 0,0 mm - 3,2 km/h 13,0 km/h S 179,0 W/qm 0,0 nein 16:20
16:256,8 °C 3,3 °C 3,3 °C 35 % 1029,7 hPa 0,0 mm - 3,2 km/h 13,0 km/h SSO 163,0 W/qm 0,0 nein 16:25
16:306,8 °C 3,3 °C 3,3 °C 35 % 1029,6 hPa 0,0 mm - 4,7 km/h 13,0 km/h S 163,0 W/qm 0,0 nein 16:30
16:356,8 °C 3,9 °C 3,3 °C 35 % 1029,6 hPa 0,0 mm - 4,7 km/h 9,7 km/h SSO 158,0 W/qm 0,0 nein 16:35
16:406,8 °C 3,9 °C 3,3 °C 35 % 1029,6 hPa 0,0 mm - 4,7 km/h 14,4 km/h SSO 134,0 W/qm 0,0 nein 16:40
16:456,8 °C 3,9 °C 3,3 °C 35 % 1029,5 hPa 0,0 mm - 3,2 km/h 14,4 km/h SO 98,0 W/qm 0,0 nein 16:45
16:506,7 °C 3,9 °C 3,3 °C 35 % 1029,5 hPa 0,0 mm - 4,7 km/h 13,0 km/h SSO 67,0 W/qm 0,0 nein 16:50
16:556,5 °C 3,9 °C 3,9 °C 35 % 1029,5 hPa 0,0 mm - 4,7 km/h 11,2 km/h S 72,0 W/qm 0,0 nein 16:55
17:006,4 °C 3,9 °C 3,9 °C 36 % 1029,5 hPa 0,0 mm - 4,7 km/h 9,7 km/h SSO 53,0 W/qm 0,0 nein 17:00
17:056,2 °C 3,9 °C 3,9 °C 37 % 1029,6 hPa 0,0 mm 1,6 mm 3,2 km/h 9,7 km/h SSO 40,0 W/qm 0,0 nein 17:05
17:106,2 °C 3,9 °C 3,9 °C 37 % 1029,6 hPa 0,0 mm 1,6 mm 3,2 km/h 9,7 km/h SSO 37,0 W/qm 0,0 nein 17:10
17:156,1 °C 3,9 °C 3,9 °C 36 % 1029,7 hPa 0,0 mm - 3,2 km/h 9,7 km/h S 35,0 W/qm 0,0 nein 17:15
17:205,9 °C 3,9 °C 3,9 °C 37 % 1029,8 hPa 0,0 mm - 3,2 km/h 9,7 km/h S 25,0 W/qm 0,0 nein 17:20
17:255,3 °C 3,9 °C 3,9 °C 43 % 1029,9 hPa 0,0 mm - 1,4 km/h 7,9 km/h S 23,0 W/qm 0,0 nein 17:25
17:304,3 °C 3,3 °C 3,9 °C 47 % 1030,0 hPa 0,0 mm - 0,0 km/h 7,9 km/h S 25,0 W/qm 0,0 nein 17:30
17:353,6 °C 3,3 °C 3,9 °C 50 % 1030,1 hPa 0,0 mm - 0,0 km/h 6,5 km/h S 21,0 W/qm 0,0 nein 17:35
17:402,9 °C 3,3 °C 3,9 °C 53 % 1030,2 hPa 0,0 mm - 0,0 km/h 3,2 km/h S 19,0 W/qm 0,0 nein 17:40
17:452,6 °C 3,3 °C 3,9 °C 54 % 1030,4 hPa 0,0 mm - 0,0 km/h 1,4 km/h S 16,0 W/qm 0,0 nein 17:45
17:502,3 °C 3,3 °C 3,9 °C 54 % 1030,4 hPa 0,0 mm - 0,0 km/h 0,0 km/h S 14,0 W/qm 0,0 nein 17:50
17:551,8 °C 3,3 °C 3,9 °C 56 % 1030,5 hPa 0,0 mm - 0,0 km/h 0,0 km/h S 11,0 W/qm 0,0 nein 17:55
UhrzeitTemperaturBoden 10cmBoden 20cmFeuchteLuftdruckNiederschlagEvapotranspirationWindWindböenWindrichtungSolarstrahlungUV-IndexSonne?Uhrzeit
18:001,6 °C 3,3 °C 3,9 °C 58 % 1030,6 hPa 0,0 mm - 0,0 km/h 0,0 km/h S 5,0 W/qm 0,0 nein 18:00
18:051,5 °C 3,3 °C 3,9 °C 56 % 1030,8 hPa 0,0 mm 1,6 mm 0,0 km/h 1,4 km/h S 0,0 W/qm 0,0 nein 18:05
18:101,4 °C 3,3 °C 3,9 °C 58 % 1030,7 hPa 0,0 mm 1,6 mm 0,0 km/h 1,4 km/h S 0,0 W/qm 0,0 nein 18:10
18:151,2 °C 3,3 °C 3,9 °C 56 % 1030,8 hPa 0,0 mm - 0,0 km/h 1,4 km/h S 0,0 W/qm 0,0 nein 18:15
18:201,1 °C 3,3 °C 3,9 °C 58 % 1030,8 hPa 0,0 mm - 0,0 km/h 0,0 km/h S 0,0 W/qm 0,0 nein 18:20
18:250,9 °C 3,3 °C 3,9 °C 57 % 1030,8 hPa 0,0 mm - 0,0 km/h 0,0 km/h S 0,0 W/qm 0,0 nein 18:25
18:300,8 °C 3,3 °C 3,9 °C 56 % 1031,0 hPa 0,0 mm - 0,0 km/h 0,0 km/h S 0,0 W/qm 0,0 nein 18:30
18:350,6 °C 3,3 °C 3,9 °C 60 % 1030,8 hPa 0,0 mm - 0,0 km/h 0,0 km/h S 0,0 W/qm 0,0 nein 18:35
18:400,2 °C 3,3 °C 3,9 °C 62 % 1030,8 hPa 0,0 mm - 0,0 km/h 0,0 km/h S 0,0 W/qm 0,0 nein 18:40
18:450,0 °C 3,3 °C 3,9 °C 63 % 1030,9 hPa 0,0 mm - 0,0 km/h 0,0 km/h S 0,0 W/qm 0,0 nein 18:45
18:50-0,3 °C 3,3 °C 3,9 °C 64 % 1030,9 hPa 0,0 mm - 0,0 km/h 0,0 km/h S 0,0 W/qm 0,0 nein 18:50
18:55-0,4 °C 3,3 °C 3,9 °C 64 % 1030,9 hPa 0,0 mm - 0,0 km/h 0,0 km/h S 0,0 W/qm 0,0 nein 18:55
19:00-0,5 °C 3,3 °C 3,9 °C 64 % 1030,8 hPa 0,0 mm - 0,0 km/h 0,0 km/h S 0,0 W/qm 0,0 nein 19:00
19:05-0,7 °C 3,3 °C 3,9 °C 66 % 1030,9 hPa 0,0 mm 1,6 mm 0,0 km/h 0,0 km/h S 0,0 W/qm 0,0 nein 19:05
19:10-1,0 °C 3,3 °C 3,9 °C 67 % 1030,9 hPa 0,0 mm 1,6 mm 0,0 km/h 0,0 km/h S 0,0 W/qm 0,0 nein 19:10
19:15-1,1 °C 3,3 °C 3,9 °C 68 % 1031,0 hPa 0,0 mm - 0,0 km/h 0,0 km/h S 0,0 W/qm 0,0 nein 19:15
19:20-1,3 °C 3,3 °C 3,9 °C 67 % 1030,9 hPa 0,0 mm - 0,0 km/h 0,0 km/h S 0,0 W/qm 0,0 nein 19:20
19:25-1,3 °C 3,3 °C 3,9 °C 68 % 1031,0 hPa 0,0 mm - 0,0 km/h 0,0 km/h S 0,0 W/qm 0,0 nein 19:25
19:30-1,4 °C 3,3 °C 3,9 °C 68 % 1031,0 hPa 0,0 mm - 0,0 km/h 0,0 km/h S 0,0 W/qm 0,0 nein 19:30
19:35-1,6 °C 3,3 °C 3,9 °C 69 % 1031,0 hPa 0,0 mm - 0,0 km/h 0,0 km/h S 0,0 W/qm 0,0 nein 19:35
19:40-1,7 °C 3,3 °C 3,9 °C 68 % 1031,1 hPa 0,0 mm - 0,0 km/h 0,0 km/h S 0,0 W/qm 0,0 nein 19:40
19:45-1,7 °C 3,3 °C 3,9 °C 68 % 1031,1 hPa 0,0 mm - 0,0 km/h 0,0 km/h S 0,0 W/qm 0,0 nein 19:45
19:50-1,9 °C 3,3 °C 3,9 °C 70 % 1031,2 hPa 0,0 mm - 0,0 km/h 0,0 km/h S 0,0 W/qm 0,0 nein 19:50
19:55-2,2 °C 3,3 °C 3,9 °C 71 % 1031,2 hPa 0,0 mm - 0,0 km/h 0,0 km/h S 0,0 W/qm 0,0 nein 19:55
UhrzeitTemperaturBoden 10cmBoden 20cmFeuchteLuftdruckNiederschlagEvapotranspirationWindWindböenWindrichtungSolarstrahlungUV-IndexSonne?Uhrzeit
20:00-2,2 °C 3,3 °C 3,9 °C 72 % 1031,2 hPa 0,0 mm - 0,0 km/h 0,0 km/h S 0,0 W/qm 0,0 nein 20:00
20:05-2,2 °C 3,3 °C 3,9 °C 72 % 1031,2 hPa 0,0 mm 1,6 mm 0,0 km/h 0,0 km/h S 0,0 W/qm 0,0 nein 20:05
20:10-2,1 °C 3,3 °C 3,9 °C 72 % 1031,1 hPa 0,0 mm 1,6 mm 0,0 km/h 0,0 km/h S 0,0 W/qm 0,0 nein 20:10
20:15-2,1 °C 3,3 °C 3,9 °C 72 % 1031,1 hPa 0,0 mm - 0,0 km/h 0,0 km/h S 0,0 W/qm 0,0 nein 20:15
20:20-2,3 °C 3,3 °C 3,9 °C 71 % 1031,1 hPa 0,0 mm - 0,0 km/h 0,0 km/h S 0,0 W/qm 0,0 nein 20:20
20:25-2,4 °C 3,3 °C 3,9 °C 72 % 1031,1 hPa 0,0 mm - 0,0 km/h 0,0 km/h S 0,0 W/qm 0,0 nein 20:25
20:30-2,6 °C 3,3 °C 3,9 °C 73 % 1031,2 hPa 0,0 mm - 0,0 km/h 0,0 km/h S 0,0 W/qm 0,0 nein 20:30
20:35-2,9 °C 3,3 °C 3,9 °C 73 % 1031,2 hPa 0,0 mm - 0,0 km/h 0,0 km/h S 0,0 W/qm 0,0 nein 20:35
20:40-2,9 °C 3,3 °C 3,9 °C 73 % 1031,1 hPa 0,0 mm - 0,0 km/h 0,0 km/h S 0,0 W/qm 0,0 nein 20:40
20:45-2,9 °C 3,3 °C 3,9 °C 73 % 1031,2 hPa 0,0 mm - 0,0 km/h 0,0 km/h S 0,0 W/qm 0,0 nein 20:45
20:50-2,9 °C 3,3 °C 3,9 °C 73 % 1031,2 hPa 0,0 mm - 0,0 km/h 0,0 km/h S 0,0 W/qm 0,0 nein 20:50
20:55-3,1 °C 3,3 °C 3,9 °C 73 % 1031,1 hPa 0,0 mm - 0,0 km/h 0,0 km/h S 0,0 W/qm 0,0 nein 20:55
21:00-3,2 °C 3,3 °C 3,9 °C 72 % 1031,3 hPa 0,0 mm - 0,0 km/h 0,0 km/h S 0,0 W/qm 0,0 nein 21:00
21:05-3,3 °C 3,3 °C 3,9 °C 75 % 1031,3 hPa 0,0 mm 1,6 mm 0,0 km/h 0,0 km/h S 0,0 W/qm 0,0 nein 21:05
21:10-3,3 °C 3,3 °C 3,9 °C 76 % 1031,3 hPa 0,0 mm 1,6 mm 0,0 km/h 0,0 km/h S 0,0 W/qm 0,0 nein 21:10
21:15-3,3 °C 3,3 °C 3,9 °C 75 % 1031,1 hPa 0,0 mm - 0,0 km/h 0,0 km/h S 0,0 W/qm 0,0 nein 21:15
21:20-3,4 °C 3,3 °C 3,9 °C 76 % 1031,1 hPa 0,0 mm - 0,0 km/h 0,0 km/h S 0,0 W/qm 0,0 nein 21:20
21:25-3,4 °C 3,3 °C 3,9 °C 76 % 1031,2 hPa 0,0 mm - 0,0 km/h 0,0 km/h S 0,0 W/qm 0,0 nein 21:25
21:30-3,4 °C 2,8 °C 3,9 °C 75 % 1031,2 hPa 0,0 mm - 0,0 km/h 0,0 km/h S 0,0 W/qm 0,0 nein 21:30
21:35-3,4 °C 2,8 °C 3,9 °C 75 % 1031,3 hPa 0,0 mm - 0,0 km/h 0,0 km/h S 0,0 W/qm 0,0 nein 21:35
21:40-3,4 °C 2,8 °C 3,9 °C 75 % 1031,1 hPa 0,0 mm - 0,0 km/h 0,0 km/h S 0,0 W/qm 0,0 nein 21:40
21:45-3,4 °C 2,8 °C 3,9 °C 74 % 1031,1 hPa 0,0 mm - 0,0 km/h 0,0 km/h S 0,0 W/qm 0,0 nein 21:45
21:50-3,6 °C 2,8 °C 3,9 °C 75 % 1031,0 hPa 0,0 mm - 0,0 km/h 0,0 km/h S 0,0 W/qm 0,0 nein 21:50
21:55-3,7 °C 2,8 °C 3,9 °C 76 % 1031,1 hPa 0,0 mm - 0,0 km/h 0,0 km/h S 0,0 W/qm 0,0 nein 21:55
UhrzeitTemperaturBoden 10cmBoden 20cmFeuchteLuftdruckNiederschlagEvapotranspirationWindWindböenWindrichtungSolarstrahlungUV-IndexSonne?Uhrzeit
22:00-3,8 °C 2,8 °C 3,9 °C 78 % 1031,2 hPa 0,0 mm - 0,0 km/h 0,0 km/h S 0,0 W/qm 0,0 nein 22:00
22:05-3,7 °C 2,8 °C 3,9 °C 78 % 1031,1 hPa 0,0 mm 1,6 mm 0,0 km/h 0,0 km/h S 0,0 W/qm 0,0 nein 22:05
22:10-3,7 °C 2,8 °C 3,9 °C 78 % 1031,2 hPa 0,0 mm 1,6 mm 0,0 km/h 0,0 km/h S 0,0 W/qm 0,0 nein 22:10
22:15-3,8 °C 2,8 °C 3,9 °C 80 % 1031,1 hPa 0,0 mm - 0,0 km/h 0,0 km/h S 0,0 W/qm 0,0 nein 22:15
22:20-3,9 °C 2,8 °C 3,9 °C 79 % 1031,1 hPa 0,0 mm - 0,0 km/h 0,0 km/h S 0,0 W/qm 0,0 nein 22:20
22:25-4,0 °C 2,8 °C 3,9 °C 79 % 1031,1 hPa 0,0 mm - 0,0 km/h 0,0 km/h S 0,0 W/qm 0,0 nein 22:25
22:30-4,1 °C 2,8 °C 3,9 °C 79 % 1031,0 hPa 0,0 mm - 0,0 km/h 0,0 km/h S 0,0 W/qm 0,0 nein 22:30
22:35-4,2 °C 2,8 °C 3,9 °C 80 % 1031,0 hPa 0,0 mm - 0,0 km/h 0,0 km/h S 0,0 W/qm 0,0 nein 22:35
22:40-4,2 °C 2,8 °C 3,9 °C 80 % 1031,0 hPa 0,0 mm - 0,0 km/h 0,0 km/h S 0,0 W/qm 0,0 nein 22:40
22:45-4,2 °C 2,8 °C 3,9 °C 78 % 1031,1 hPa 0,0 mm - 0,0 km/h 0,0 km/h S 0,0 W/qm 0,0 nein 22:45
22:50-4,3 °C 2,8 °C 3,9 °C 78 % 1031,3 hPa 0,0 mm - 0,0 km/h 0,0 km/h S 0,0 W/qm 0,0 nein 22:50
22:55-4,3 °C 2,8 °C 3,9 °C 78 % 1031,3 hPa 0,0 mm - 0,0 km/h 0,0 km/h S 0,0 W/qm 0,0 nein 22:55
23:00-4,4 °C 2,8 °C 3,9 °C 80 % 1031,3 hPa 0,0 mm - 0,0 km/h 0,0 km/h S 0,0 W/qm 0,0 nein 23:00
23:05-4,5 °C 2,8 °C 3,9 °C 80 % 1031,5 hPa 0,0 mm 1,6 mm 0,0 km/h 0,0 km/h S 0,0 W/qm 0,0 nein 23:05
23:10-4,4 °C 2,8 °C 3,9 °C 80 % 1031,4 hPa 0,0 mm 1,6 mm 0,0 km/h 0,0 km/h S 0,0 W/qm 0,0 nein 23:10
23:15-4,5 °C 2,8 °C 3,3 °C 81 % 1031,5 hPa 0,0 mm - 0,0 km/h 0,0 km/h S 0,0 W/qm 0,0 nein 23:15
23:20-4,7 °C 2,8 °C 3,3 °C 81 % 1031,5 hPa 0,0 mm - 0,0 km/h 0,0 km/h S 0,0 W/qm 0,0 nein 23:20
23:25-4,7 °C 2,8 °C 3,3 °C 81 % 1031,7 hPa 0,0 mm - 0,0 km/h 0,0 km/h S 0,0 W/qm 0,0 nein 23:25
23:30-4,7 °C 2,8 °C 3,3 °C 82 % 1031,7 hPa 0,0 mm - 0,0 km/h 0,0 km/h S 0,0 W/qm 0,0 nein 23:30
23:35-4,7 °C 2,8 °C 3,3 °C 83 % 1031,6 hPa 0,0 mm - 0,0 km/h 0,0 km/h S 0,0 W/qm 0,0 nein 23:35
23:40-4,8 °C 2,8 °C 3,3 °C 83 % 1031,4 hPa 0,0 mm - 0,0 km/h 0,0 km/h S 0,0 W/qm 0,0 nein 23:40
23:45-4,8 °C 2,8 °C 3,3 °C 83 % 1031,2 hPa 0,0 mm - 0,0 km/h 0,0 km/h S 0,0 W/qm 0,0 nein 23:45
23:50-4,8 °C 2,8 °C 3,3 °C 83 % 1031,3 hPa 0,0 mm - 0,0 km/h 0,0 km/h S 0,0 W/qm 0,0 nein 23:50
23:55-4,9 °C 2,8 °C 3,3 °C 83 % 1031,4 hPa 0,0 mm - 0,0 km/h 0,0 km/h S 0,0 W/qm 0,0 nein 23:55
Gesamt: -0,8 °C 2,8 °C 3,6 °C 66 % 1032,9 hPa 0,0 mm 33,8 mm 1,6 km/h 5,2 km/h 0 150,4 W/qm 0,4 ja

Insgesamt 288 Zeilen mal 13 Spalten = 3744 Werte werden angezeigt.

www.wetter-rosstal.de   •   www.wetter-franken.de   •   www.lightningmaps.org   •   Start   •   Kontakt / Datenschutz   •   PC-Kümmerer